This is the latest recevied weather packets stored in our database for station/object KF6YUA. If no packets are shown the sender has not sent any weather packets the latest 10 day(s).
| Time | Temp. | Humidity | Pressure | Rain* | Wind** | Luminosity | Snow |
|---|---|---|---|---|---|---|---|
| 1777490915 | 20° C | 69% | 1020 hPa | 0 mm | - | 761 W/m² | - |
| 1777490612 | 19.44° C | 73% | 1020.2 hPa | 0 mm | - | 796 W/m² | - |
| 1777490308 | 19.44° C | 72% | 1020.3 hPa | 0 mm | - | 712 W/m² | - |
| 1777490006 | 19.44° C | 73% | 1020.2 hPa | 0 mm | - | 717 W/m² | - |
| 1777489704 | 20° C | 69% | 1020.3 hPa | 0 mm | - | 787 W/m² | - |
| 1777489400 | 21.11° C | 71% | 1020.3 hPa | 0 mm | - | 606 W/m² | - |
| 1777489097 | 21.11° C | 68% | 1020.6 hPa | 0 mm | - | 506 W/m² | - |
| 1777488793 | 21.11° C | 66% | 1020.3 hPa | 0 mm | - | 533 W/m² | - |
| 1777488491 | 21.11° C | 63% | 1020.4 hPa | 0 mm | - | 532 W/m² | - |
| 1777488189 | 21.67° C | 65% | 1020.4 hPa | 0 mm | - | 543 W/m² | - |
| 1777487887 | 20.56° C | 63% | 1020.4 hPa | 0 mm | - | 654 W/m² | - |
| 1777487585 | 21.11° C | 61% | 1020.3 hPa | 0 mm | - | 634 W/m² | - |
| 1777487281 | 21.67° C | 57% | 1020.5 hPa | 0 mm | - | 696 W/m² | - |
| 1777486978 | 21.11° C | 61% | 1020.5 hPa | 0 mm | - | 619 W/m² | - |
| 1777486674 | 20° C | 63% | 1020.6 hPa | 0 mm | - | 669 W/m² | - |
| 1777486372 | 20° C | 68% | 1020.6 hPa | 0 mm | - | 647 W/m² | - |
| 1777486070 | 20° C | 67% | 1020.6 hPa | 0 mm | - | 596 W/m² | - |
| 1777485766 | 20° C | 65% | 1020.4 hPa | 0 mm | - | 598 W/m² | - |
| 1777485461 | 18.89° C | 64% | 1020.7 hPa | 0 mm | - | 559 W/m² | - |
| 1777485158 | 18.89° C | 70% | 1020.6 hPa | 0 mm | - | 563 W/m² | - |
| 1777484854 | 18.89° C | 69% | 1020.6 hPa | 0 mm | - | 664 W/m² | - |
| 1777484552 | 18.89° C | 68% | 1020.6 hPa | 0 mm | - | 625 W/m² | - |
| 1777484248 | 20° C | 67% | 1020.6 hPa | 0 mm | - | 601 W/m² | - |
| 1777483944 | 18.89° C | 72% | 1020.6 hPa | 0 mm | - | 699 W/m² | - |
| 1777483641 | 18.33° C | 70% | 1020.6 hPa | 0 mm | - | 653 W/m² | - |
* Rain latest hour (hover to see other rain measurements)
** Current wind speed in m/s (hover to see current wind gust speed)